Regional Weather Roundup
Issued by NWS

Home | Current Version | Previous Version | Graphics & Text | Print | Product List | Glossary On
Versions: 1 2 3 4 5 6 7 8 9 10 11 12 13 14 15 16 17 18 19 20 21 22 23 24 25 26 27 28 29 30 31 32 33 34 35 36 37 38 39 40 41 42 43 44 45 46 47 48 49 50
000
ASUS43 KTOP 031559
RWRKS

WEATHER ROUNDUP FOR KANSAS
NATIONAL WEATHER SERVICE GOODLAND KS
1100 AM CDT WED JUN 03 2015

NOTE:  "FAIR" INDICATES FEW OR NO CLOUDS BELOW 12,000 FEET WITH NO
SIGNIFICANT WEATHER AND/OR OBSTRUCTIONS TO VISIBILITY.

KSZ001>006-013>018-027>032-041>047-031700-
NORTHWEST KANSAS

CITY           SKY/WX    TMP DP  RH WIND       PRES   REMARKS
GOODLAND       CLOUDY    67  60  78 E15       29.94R
HAYS           CLOUDY    70  55  60 E29G36    29.87F
HILL CITY      CLOUDY    70  59  68 E17G26    29.89R
RUSSELL        CLOUDY    69  59  70 E22G29    29.87S
$$

KSZ061>065-074>080-084>089-031700-
SOUTHWEST KANSAS

CITY           SKY/WX    TMP DP  RH WIND       PRES   REMARKS
DODGE CITY     SUNNY     79  63  57 S16       29.82F
ELKHART          N/A     82  48  30 NW10        N/A
GARDEN CITY    SUNNY     78  60  53 E6        29.82S
GREAT BEND     MOSUNNY   73  64  73 E20       29.86F
LIBERAL        SUNNY     81  63  54 S15G21    29.84S
$$

KSZ066>073-081>083-090>101-031700-
SOUTHEAST KANSAS

CITY           SKY/WX    TMP DP  RH WIND       PRES   REMARKS
CHANUTE        MOSUNNY   78  67  68 S14G25    29.93F
COFFEYVILLE    PTSUNNY   77  67  71 S13       29.94R
HUTCHINSON     CLOUDY    78  65  63 NE5       29.90R
MEDICINE LODGE   N/A     81  66  60 S15G25    29.81F
NEWTON         PTSUNNY   77  63  61 CALM      29.94R
PARSONS        MOSUNNY   79  67  66 S12G20    29.95F
WICHITA INTL   PTSUNNY   81  66  60 S14G23    29.86S
WICHITA JABRA  MOSUNNY   79  66  64 S15       29.87S
WINFIELD       MOSUNNY   79  66  64 S14       29.89S
$$

KSZ007>012-019>026-033>040-048>060-102>105-031700-
NORTHEAST KANSAS

CITY           SKY/WX    TMP DP  RH WIND       PRES   REMARKS
CONCORDIA      PTSUNNY   70  62  76 SE18G25   29.88F
EMPORIA        MOSUNNY   76  66  71 S8        29.93R
LAWRENCE       CLOUDY    68  63  84 E13       29.98R
MANHATTAN      CLOUDY    67  65  93 E8        29.92F
OLATHE IND     CLOUDY    69  65  86 NE12      30.00R
OLATHE EXE     CLOUDY    66  63  90 NE14      30.00R
SALINA         CLOUDY    70  60  70 E12       29.90F
TOPEKA BILLARD TSTM      67  66  97 NE13      29.99R VSB 1
TOPEKA FORBES  CLOUDY    70  65  84 N13       29.98R THUNDER
$$


USA.gov is the U.S. government's official web portal to all federal, state and local government web resources and services.